Printer-friendly version

IAU Minor Planet Center

Minor Planet Center

MPEC 2007-U30 : 2007 UZ1

The following Minor Planet Electronic Circular may be linked-to from your own Web pages, but must not otherwise be redistributed electronically.


Read MPEC 2007-U29 Read MPEC 2007-U31


M.P.E.C. 2007-U30                                Issued 2007 Oct. 19, 16:52 UT

     The Minor Planet Electronic Circulars contain information on unusual
         minor planets and routine data on comets.  They are published
   on behalf of Commission 20 of the International Astronomical Union by the
          Minor Planet Center, Smithsonian Astrophysical Observatory,
                          Cambridge, MA 02138, U.S.A.

             Prepared using the Tamkin Foundation Computer Network

                              MPC@CFA.HARVARD.EDU
          URL http://www.cfa.harvard.edu/iau/mpc.html  ISSN 1523-6714

                                   2007 UZ1

Observations:
     K07U01Z* C2007 10 18.25218 00 51 05.18 +03 12 37.8          19.7 V EU030G96
     K07U01Z  C2007 10 18.25713 00 51 04.96 +03 12 48.5          19.8 V EU030G96
     K07U01Z  C2007 10 18.26207 00 51 04.78 +03 12 58.7          19.8 V EU030G96
     K07U01Z  C2007 10 18.26700 00 51 04.53 +03 13 08.6          19.6 V EU030G96
     K07U01Z  C2007 10 18.30466 00 51 03.06 +03 14 27.3          21.2 V EU030G96
     K07U01Z  C2007 10 18.31249 00 51 02.77 +03 14 44.0          21.2 V EU030G96
     K07U01Z  C2007 10 18.31357 00 51 02.67 +03 14 47.3          20.6 R EU030651
     K07U01Z  C2007 10 18.31794 00 51 02.46 +03 14 56.6          20.8 R EU030651
     K07U01Z  C2007 10 18.32031 00 51 02.48 +03 15 00.4          20.5 V EU030G96
     K07U01Z  C2007 10 18.32231 00 51 02.34 +03 15 05.7          20.7 R EU030651
     K07U01Z  C2007 10 18.32810 00 51 02.12 +03 15 16.3          20.4 V EU030G96
     K07U01Z  C2007 10 19.15162 00 50 37.85 +03 44 02.7                 EU030291
     K07U01Z  C2007 10 19.15536 00 50 37.74 +03 44 10.2                 EU030291
     K07U01Z  C2007 10 19.15904 00 50 37.59 +03 44 17.9                 EU030291
     K07U01Z 5C2007 10 19.22396 00 50 35.27 +03 46 33.6          20.6 R EU030673
     K07U01Z 5C2007 10 19.23137 00 50 34.96 +03 46 48.5                 EU030673
     K07U01Z 5C2007 10 19.23750 00 50 34.76 +03 47 02.8                 EU030673
     K07U01Z 5C2007 10 19.24494 00 50 34.48 +03 47 18.3                 EU030673
     K07U01Z  C2007 10 19.26771 00 50 33.44 +03 48 05.6          20.5 V EU030G96
     K07U01Z  C2007 10 19.27431 00 50 33.17 +03 48 19.2          20.9 V EU030G96
     K07U01Z  C2007 10 19.28096 00 50 32.93 +03 48 33.7          20.5 V EU030G96
     K07U01Z  C2007 10 19.28758 00 50 32.65 +03 48 47.7          20.9 V EU030G96

Observer details:
291 LPL/Spacewatch II.  Observer R. S. McMillan.  1.8-m f/2.7 reflector + CCD.
651 Grasslands Observatory, Tucson.  Observer J. E. McGaha.  0.62-m f/5.1
    reflector + CCD.
673 Table Mountain Observatory, Wrightwood.  Observer D. Mayes.  0.6-m f/16
    Cassegrain + CCD.
G96 Mt. Lemmon Survey.  Observer R. E. Hill.  Measurers E. C. Beshore,
    A. Boattini, G. J. Garradd, A. R. Gibbs, A. D. Grauer, R. E. Hill,
    R. A. Kowalski, S. M. Larson, R. H. McNaught.  1.5-m reflector + CCD.

Orbital elements:
2007 UZ1
Epoch 2007 Oct. 27.0 TT = JDT 2454400.5                 MPC
M   1.42311              (2000.0)            P               Q
n   0.20210993     Peri.  358.57709     +0.92364380     -0.37356994
a   2.8757046      Node    23.92423     +0.35367900     +0.74480401
e   0.5243887      Incl.   12.18604     +0.14762551     +0.55291273
P   4.88           H   21.4           G   0.15           U   8
Residuals in seconds of arc
071018 G96  0.4+  0.1-    071018 G96  0.7+  0.2-    071019 673  0.2+  0.9+
071018 G96  0.1+  0.2+    071018 651  0.1-  0.6+    071019 673  0.3+  0.8+
071018 G96  0.3+  0.1+    071018 G96  0.1-  0.6-    071019 G96  0.1+  0.3-
071018 G96  0.5-  0.4-    071019 291  0.2-  0.2+    071019 G96  0.1-  0.6-
071018 G96  0.1+  0.5-    071019 291  0.2+  0.2-    071019 G96  0.2+  0.0
071018 G96  0.4+  0.2-    071019 291  0.0   0.2-    071019 G96  0.2-  0.1+
071018 651  0.4-  0.5+    071019 673  0.2+  0.1+
071018 651  0.9-  0.7+    071019 673  0.3-  0.5-

Ephemeris:
2007 UZ1                 a,e,i = 2.88, 0.52, 12                  q = 1.3677
Date    TT    R. A. (2000) Decl.     Delta      r     Elong.  Phase     V
2007 10 17    00 51.76   +02 29.1    0.376    1.368   169.4     7.7    20.5
2007 10 27    00 47.50   +08 14.9    0.391    1.370   160.8    13.8    20.8
2007 11 06    00 46.86   +13 34.0    0.424    1.380   152.0    19.7    21.2
2007 11 16    00 50.79   +18 08.1    0.471    1.398   144.0    24.6    21.6
2007 11 26    00 59.41   +21 54.7    0.532    1.423   137.0    28.2    22.0

Gareth V. Williams           (C) Copyright 2007 MPC           M.P.E.C. 2007-U30

Read MPEC 2007-U29 Read MPEC 2007-U31


Our Web policy. Index to the CBAT/MPC/ICQ pages.


Valid HTML 4.01!